Flag for U.S.A. Weather past 2 weeks in Grand Rapids, Michigan, U.S.A.

Now
76 °F

Scattered clouds.


Feels Like: 78 °F
Forecast: 61 / 80 °F
Wind: 9 mph from Southwest

Location: Kent County International Airport

Current Time: Jul 31, 2014 at 8:27:34 PM

Latest Report: Jul 31, 2014 at 7:53 PM


Visibility: 10 mi

Pressure: 30.01 "Hg

Humidity: 60%

Dew point: 61 °F

Location of Grand RapidsLocation

Historic Weather in Grand Rapids — Graph

°F

Grand Rapids temperature yesterday

Maximum temperature yesterday: 77 °F (at 2:53 PM)
Minimum temperature yesterday: 56 °F (at 6:53 AM)
Average temperature yesterday: 65 °F

Past Weeks' High & Low Weather Summary

 TemperatureHumidityPressure
High85 °F (Jul 21, 3:53 PM)97% (Jul 27, 5:53 AM)30.23 "Hg (Jul 27, 5:53 AM)
Low51 °F (Jul 17, 5:53 AM)39% (Jul 17, 6:53 PM)29.62 "Hg (Jul 27, 3:53 PM)
Average68 °F70%30.01 "Hg
* Reported Jul 16 6:53 PM — Jul 31 6:53 PM, Grand Rapids, Weather by CustomWeather, © 2014

Note: Actual official high and low records may vary slightly from our data, if they occured in-between our weather recording intervals... More about our weather records

Advertising

Grand Rapids weather history for previous 24 hours

 ConditionsComfort  
Time TempWeatherWind HumidityBarometerVisibility
6:53 PM
Jul 31
78 °FPassing clouds.13 mph52%30.01 "Hg10 mi
5:53 PM79 °FPassing clouds.13 mph50%30.01 "Hg10 mi
4:53 PM80 °FPassing clouds.14 mph49%30.01 "Hg10 mi
3:53 PM80 °FPassing clouds.16 mph49%30.01 "Hg10 mi
2:53 PM79 °FPassing clouds.17 mph48%30.01 "Hg10 mi
1:53 PM79 °FPassing clouds.14 mph54%30.01 "Hg10 mi
12:53 PM77 °FPassing clouds.16 mph54%30.01 "Hg10 mi
11:53 AM76 °FPassing clouds.12 mph58%30.01 "Hg10 mi
10:53 AM73 °FPassing clouds.13 mph66%30.01 "Hg10 mi
9:53 AM69 °FPassing clouds.10 mph76%30.01 "Hg9 mi
8:53 AM66 °FScattered clouds.13 mph81%30.01 "Hg10 mi
7:53 AM59 °FPassing clouds.6 mph90%30.01 "Hg10 mi
6:53 AM57 °FPassing clouds.6 mph83%30.00 "Hg10 mi
5:53 AM55 °FPassing clouds.3 mph87%30.00 "Hg10 mi
4:53 AM56 °FOvercast.3 mph87%30.00 "Hg10 mi
3:53 AM56 °FPassing clouds.No wind87%30.00 "Hg10 mi
2:53 AM56 °FClear.No wind87%30.00 "Hg10 mi
1:53 AM57 °FClear.No wind81%30.01 "Hg10 mi
12:53 AM57 °FClear.6 mph83%30.02 "Hg10 mi
11:53 PM
Jul 30
58 °FPassing clouds.7 mph81%30.02 "Hg10 mi
10:53 PM60 °FClear.8 mph72%30.01 "Hg10 mi
9:53 PM66 °FPassing clouds.7 mph54%30.01 "Hg10 mi
8:53 PM67 °FPartly sunny.8 mph49%30.00 "Hg10 mi
Weather by CustomWeather, © 2014

See weather overviewHow to use our weather pages